Regional Weather Roundup
Issued by NWS

Home | Current Version | Previous Version | Text Only | Print | Product List | Glossary Off
Versions: 1 2 3 4 5 6 7 8 9 10 11 12 13 14 15 16 17 18 19 20 21 22 23 24 25 26 27 28 29 30 31 32 33 34 35 36 37 38 39 40 41 42 43 44 45 46 47 48 49 50

000
ASUS43 KLMK 200202
RWRKY
KENTUCKY REGIONAL WEATHER ROUNDUP
NATIONAL WEATHER SERVICE LOUISVILLE KY
1000 PM EDT TUE SEP 19 2017

NOTE "FAIR" INDICATES FEW OR NO CLOUDS BELOW 12,000 FEET
WITH NO SIGNIFICANT WEATHER AND/OR OBSTRUCTIONS TO VISIBILITY.

KYZ001>023-026-027-061>063-070>075-200300-
WESTERN AND SOUTH CENTRAL KENTUCKY

CITY           SKY/WX    TMP DP  RH WIND       PRES   REMARKS
PADUCAH        CLEAR     76  68  76 S3        29.90R
HENDERSON      NOT AVBL
OWENSBORO      CLEAR     74  70  87 CALM      29.93
HOPKINSVILLE   CLEAR     76  67  75 SE6       29.93R
BOWLING GREEN  CLEAR     72  70  93 CALM      29.95R
GLASGOW        PTCLDY    70  69  98 CALM      29.96S
$$

KYZ024-025-028>034-038-045-046-053-200300-
NORTH CENTRAL KENTUCKY

CITY           SKY/WX    TMP DP  RH WIND       PRES   REMARKS
LOUISVILLE/SDF CLEAR     72  69  90 SE3       29.95R
LOUISVILLE/LOU CLEAR     70  70 100 CALM      29.96R
FORT KNOX      CLEAR     69  69 100 CALM      29.94S FOG
$$

KYZ035>037-039>044-047>052-055>060-089>105-200300-
NORTHEAST KENTUCKY

CITY           SKY/WX    TMP DP  RH WIND       PRES   REMARKS
LEXINGTON      MOCLDY    71  66  84 E3        29.98R
COVINGTON      CLEAR     67  67 100 S3        29.96R
FRANKFORT      CLEAR     67  64  90 CALM      29.96R
$$

KYZ054-064>069-076>088-106>120-200300-
SOUTHEAST KENTUCKY

CITY           SKY/WX    TMP DP  RH WIND       PRES   REMARKS
JACKSON        MOCLDY    71  68  90 SE3       30.00R
LONDON         PTCLDY    71  67  87 CALM      30.00R
SOMERSET       NOT AVBL
MIDDLESBORO    MOCLDY    68  65  91 W3        30.01R
MONTICELLO     CLEAR     64  64 100 CALM      30.00R
$$





USA.gov is the U.S. government's official web portal to all federal, state and local government web resources and services.